Regional Weather Roundup
Issued by NWS

Home | Current Version | Previous Version | Graphics & Text | Print | Product List | Glossary Off
Versions: 1 2 3 4 5 6 7 8 9 10 11 12 13 14 15 16 17 18 19 20 21 22 23 24 25 26 27

000
ASUS45 KBOU 251907
RWRCO

WEATHER ROUNDUP FOR COLORADO
NATIONAL WEATHER SERVICE DENVER/BOULDER CO
100 PM MDT SAT OCT 25 2014

NOTE: "FAIR" INDICATES FEW OR NO CLOUDS BELOW 12000 FEET WITH NO
SIGNIFICANT WEATHER AND/OR OBSTRUCTIONS TO VISIBILITY.

COZ001>005-013-030-031-252000-
...NORTHWEST COLORADO...

CITY           SKY/WX    TMP DP  RH WIND       PRES   REMARKS
CRAIG          SUNNY     71  27  19 W7        30.23F
HAYDEN         SUNNY     66  23  19 N3        30.24F
MEEKER         SUNNY     73  23  15 SW18G25   30.24F
MOUNT WERNER   NOT AVBL
STEAMBOAT SPGS SUNNY     65  27  23 NW3       30.26F
WALDEN         SUNNY     63  12  14 S12G20    30.33F
$$

COZ006>008-011-252000-
...WEST CENTRAL VALLEYS...

CITY           SKY/WX    TMP DP  RH WIND       PRES   REMARKS
GRAND JUNCTION SUNNY     70  29  21 SE6       30.19F
MONTROSE       SUNNY     70  30  22 N10       30.26F
EAGLE          SUNNY     57  28  33 CALM      30.33F
RIFLE          SUNNY     65  29  25 E3        30.23F
DELTA          SUNNY     71  29  20 E6        30.23F
NUCLA          SUNNY     68  27  21 N5        30.30F
$$

COZ017>023-064>068-252000-
...SOUTHWEST COLORADO...

CITY           SKY/WX    TMP DP  RH WIND       PRES   REMARKS
DURANGO        SUNNY     67  34  29 CALM      30.34F
CORTEZ         SUNNY     73  33  23 SW14      30.29F
PAGOSA SPRINGS SUNNY     68  24  19 SW7       30.40F
TELLURIDE      SUNNY     64  17  16 CALM      30.45F
WOLF CREEK PAS SUNNY     48  18  29 S12G25      N/A
$$

COZ009-010-012-014-032>034-037-058>063-252000-
...CENTRAL COLORADO...

CITY           SKY/WX    TMP DP  RH WIND       PRES   REMARKS
ASPEN          SUNNY     65  19  17 N7        30.32F
BUENA VISTA    SUNNY     65  14  13 CALM      30.35F
COPPER MTN     SUNNY     59 -15   4 S14G24    30.59F
BERTHOUD PASS  FAIR      45  41  87 MISG      30.62F
COTTONWOOD PAS SUNNY     63  -6   6 CALM      30.47F
GUNNISON       SUNNY     55  21  26 S3        30.41F
KREMMLING      SUNNY     59  21  23 CALM        N/A
LEADVILLE      SUNNY     59   4  11 S7        30.44F
MONARCH PASS   SUNNY     52  14  22 SW16      30.71F
SALIDA         SUNNY     67  22  18 CALM      30.39F
SUNLIGHT       SUNNY     59  23  25 CALM      30.54F
WILKERSON PASS NOT AVBL
$$

COZ069>075-252000-
...SAN LUIS VALLEY/SANGRE DE CRISTO MOUNTAINS...

CITY           SKY/WX    TMP DP  RH WIND       PRES   REMARKS
ALAMOSA        SUNNY     65  27  23 VRB5      30.36F
LA VETA PASS   SUNNY     63  21  20 S6        30.51F
SAGUACHE       SUNNY     64  27  24 SE3       30.38F
$$

COZ035-036-038>040-252000-
...NORTHERN COLORADO FRONT RANGE...

CITY           SKY/WX    TMP DP  RH WIND       PRES   REMARKS
DENVER INTL AP SUNNY     78  19  11 SE10      30.18F
DMNS CITY PARK   N/A     78  22  12 S3G15     30.17F
AURORA         MOSUNNY   76  19  12 SE9       30.20F
FRONT RANGE AP NOT AVBL
ERIE MUNI ARPT SUNNY     77  18  10 S9        30.16F
BOULDER MUN AP SUNNY     77  23  13 SE9       30.16F
CENTENNIAL     SUNNY     74  21  13 SE12      30.21F
BROOMFIELD     SUNNY     77  21  12 SE8       30.20F
FORT COLLINS   SUNNY     75  28  17 S12       30.16F
LONGMONT       SUNNY     81  22  11 SE9       30.17F
$$

COZ041-046-047-076>085-087-088-252000-
...PIKES PEAK/PALMER DIVIDE AND SOUTHERN FOOTHILLS...

CITY           SKY/WX    TMP DP  RH WIND       PRES   REMARKS
COLO. SPRINGS  SUNNY     77  14   9 NE9       30.24F
A. F. ACADEMY  SUNNY     74  12   9 SE9       30.25F
ELLICOTT       NOT AVBL
FALCON         SUNNY     74  15  11 E8        30.30F
FORT CARSON    SUNNY     77  17  10 E7        30.21F HAZE
LIMON          SUNNY     78  17  10 VRB6      30.18F
MONUMENT HILL  SUNNY     70  18  13 SE7       30.29F
TRINIDAD       SUNNY     78  26  14 E7        30.20F
$$

COZ042>045-048>051-090-091-252000-
...NORTHEAST COLORADO...

CITY           SKY/WX    TMP DP  RH WIND       PRES   REMARKS
GREELEY ARPT   SUNNY     75  28  17 SW6       30.16F
AKRON          SUNNY     78  28  16 NE3       30.14F
BURLINGTON     SUNNY     79  31  17 MISG      30.12F
WRAY           SUNNY     80  28  15 E3        30.10F
STERLING       SUNNY     79  36  21 CALM      30.10F
HOLYOKE        SUNNY     79  36  21 CALM      30.10F
FORT MORGAN    SUNNY     76  28  16 SE3       30.14F
$$

COZ086-089-092>099-252000-
...SOUTHEAST COLORADO...

CITY           SKY/WX    TMP DP  RH WIND       PRES   REMARKS
PUEBLO         SUNNY     81  21  11 MISG      30.14F
LA JUNTA       SUNNY     81  29  15 VRB3      30.11F
LAMAR          SUNNY     80  37  21 NW5       30.07F
SPRINGFIELD      N/A     83  31  15 S9        30.12F
$$



USA.gov is the U.S. government's official web portal to all federal, state and local government web resources and services.